XNO1012 EGLL-EDDB

Flight info

Callsign XNO1012
Flight time 1h 16m
Altitude 41000
Route BPK Q295 BRAIN M197 REDFA DCT TACHA DCT NIE DCT BATEL T207 OGBER OGBER1R
Aircraft A35K/H-SDE2E3GHIJ3J4J5LM1ORWXY/LB1D1

Departure

Time 2026-05-05 06:04
Airport London Heathrow Airport (EGLL)

Arrival

Time 2026-05-05 07:20
Airport Berlin Brandenburg Airport (EDDB)
Time Latitude Longitude Altitude Speed Heading
2026-05-05 05:41 51.46938 -0.44198 92 ft 0 kts 270°
2026-05-05 05:52 51.46939 -0.44178 94 ft 4 kts 270°
2026-05-05 05:53 51.46939 -0.44135 92 ft 4 kts 270°
2026-05-05 05:53 51.46939 -0.44100 92 ft 4 kts 262°
2026-05-05 05:53 51.46948 -0.44065 95 ft 4 kts 212°
2026-05-05 05:53 51.46970 -0.44056 93 ft 4 kts 180°
2026-05-05 05:54 51.46997 -0.44056 93 ft 3 kts 180°
2026-05-05 05:54 51.47000 -0.44056 93 ft 0 kts 180°
2026-05-05 05:56 51.46989 -0.44056 93 ft 4 kts 180°
2026-05-05 05:56 51.46950 -0.44056 94 ft 7 kts 180°
2026-05-05 05:57 51.46885 -0.44055 96 ft 11 kts 180°
2026-05-05 05:57 51.46795 -0.44054 96 ft 15 kts 180°
2026-05-05 05:57 51.46704 -0.44059 95 ft 12 kts 194°
2026-05-05 05:57 51.46668 -0.44177 94 ft 14 kts 265°
2026-05-05 05:58 51.46666 -0.44350 92 ft 17 kts 270°
2026-05-05 05:58 51.46665 -0.44556 92 ft 20 kts 270°
2026-05-05 05:58 51.46665 -0.44794 92 ft 23 kts 270°
2026-05-05 05:58 51.46664 -0.45062 95 ft 25 kts 270°
2026-05-05 05:59 51.46663 -0.45360 92 ft 28 kts 270°
2026-05-05 05:59 51.46662 -0.45686 94 ft 30 kts 270°
2026-05-05 05:59 51.46660 -0.46036 93 ft 32 kts 270°
2026-05-05 05:59 51.46660 -0.46410 96 ft 34 kts 270°
2026-05-05 06:00 51.46659 -0.46803 96 ft 36 kts 270°
2026-05-05 06:00 51.46658 -0.47217 95 ft 38 kts 270°
2026-05-05 06:00 51.46657 -0.47461 95 ft 0 kts 269°
2026-05-05 06:00 51.46657 -0.47487 95 ft 0 kts 268°
2026-05-05 06:01 51.46656 -0.47518 95 ft 12 kts 268°
2026-05-05 06:01 51.46655 -0.47718 96 ft 20 kts 270°
2026-05-05 06:01 51.46654 -0.47958 92 ft 23 kts 269°
2026-05-05 06:01 51.46654 -0.48046 92 ft 0 kts 269°
2026-05-05 06:02 51.46653 -0.48056 94 ft 5 kts 269°
2026-05-05 06:02 51.46653 -0.48200 92 ft 18 kts 270°
2026-05-05 06:02 51.46653 -0.48419 92 ft 21 kts 269°
2026-05-05 06:02 51.46652 -0.48655 92 ft 16 kts 269°
2026-05-05 06:03 51.46603 -0.48760 96 ft 13 kts 203°
2026-05-05 06:03 51.46504 -0.48752 96 ft 16 kts 144°
2026-05-05 06:03 51.46479 -0.48600 95 ft 9 kts 90°
2026-05-05 06:03 51.46479 -0.48512 92 ft 13 kts 90°
2026-05-05 06:04 51.46480 -0.47971 93 ft 90 kts 90°
2026-05-05 06:04 51.46484 -0.46549 98 ft 162 kts 90°
2026-05-05 06:04 51.46455 -0.44597 748 ft 173 kts 92°
2026-05-05 06:04 51.46491 -0.42683 1648 ft 178 kts 72°
2026-05-05 06:05 51.47182 -0.40894 2125 ft 203 kts 46°
2026-05-05 06:05 51.48184 -0.39172 2836 ft 219 kts 45°
2026-05-05 06:05 51.49261 -0.37296 3510 ft 237 kts 46°
2026-05-05 06:05 51.50382 -0.35260 4350 ft 248 kts 47°
2026-05-05 06:06 51.51472 -0.33035 5172 ft 260 kts 57°
2026-05-05 06:06 51.52235 -0.30356 5763 ft 267 kts 68°
2026-05-05 06:06 51.52873 -0.27532 5983 ft 271 kts 65°
2026-05-05 06:06 51.53838 -0.24962 6004 ft 268 kts 47°
2026-05-05 06:07 51.55319 -0.23191 6335 ft 269 kts 24°
2026-05-05 06:07 51.56988 -0.21763 7186 ft 274 kts 34°
2026-05-05 06:07 51.58347 -0.19610 8321 ft 278 kts 52°
2026-05-05 06:07 51.59399 -0.16964 9416 ft 284 kts 60°
2026-05-05 06:08 51.60284 -0.14079 10368 ft 294 kts 65°
2026-05-05 06:08 51.61123 -0.10921 10852 ft 320 kts 67°
2026-05-05 06:08 51.61990 -0.07459 11290 ft 346 kts 68°
2026-05-05 06:08 51.62908 -0.03783 12012 ft 359 kts 68°
2026-05-05 06:09 51.63865 -0.00034 13011 ft 364 kts 67°
2026-05-05 06:09 51.64849 0.03742 14045 ft 368 kts 67°
2026-05-05 06:09 51.65850 0.07522 14898 ft 374 kts 67°
2026-05-05 06:09 51.66891 0.11420 15699 ft 382 kts 67°
2026-05-05 06:10 51.67951 0.15375 16538 ft 388 kts 68°
2026-05-05 06:10 51.69026 0.19392 17412 ft 394 kts 68°
2026-05-05 06:10 51.70118 0.23478 18267 ft 400 kts 68°
2026-05-05 06:10 51.71222 0.27625 19064 ft 405 kts 68°
2026-05-05 06:11 51.72341 0.31835 19884 ft 410 kts 68°
2026-05-05 06:11 51.73469 0.36093 20712 ft 416 kts 68°
2026-05-05 06:11 51.74610 0.40406 21493 ft 421 kts 68°
2026-05-05 06:11 51.75767 0.44793 22312 ft 427 kts 69°
2026-05-05 06:12 51.76936 0.49232 23111 ft 432 kts 69°
2026-05-05 06:12 51.78122 0.53743 23777 ft 440 kts 69°
2026-05-05 06:12 51.79323 0.58324 24418 ft 446 kts 69°
2026-05-05 06:12 51.80523 0.62986 25063 ft 451 kts 71°
2026-05-05 06:13 51.81476 0.67839 25661 ft 457 kts 75°
2026-05-05 06:13 51.82325 0.72825 26270 ft 463 kts 76°
2026-05-05 06:13 51.83130 0.77895 26951 ft 467 kts 77°
2026-05-05 06:13 51.83916 0.83022 27616 ft 472 kts 77°
2026-05-05 06:14 51.84768 0.88179 28251 ft 477 kts 75°
2026-05-05 06:14 51.85688 0.93292 28877 ft 482 kts 74°
2026-05-05 06:14 51.86659 0.98505 29468 ft 487 kts 74°
2026-05-05 06:14 51.87648 1.03787 29963 ft 494 kts 74°
2026-05-05 06:15 51.88641 1.09141 30468 ft 498 kts 74°
2026-05-05 06:15 51.89628 1.14523 31046 ft 500 kts 74°
2026-05-05 06:15 51.90610 1.19938 31653 ft 500 kts 74°
2026-05-05 06:15 51.91582 1.25344 32213 ft 502 kts 75°
2026-05-05 06:16 51.92553 1.30781 32750 ft 503 kts 75°
2026-05-05 06:16 51.93521 1.36219 33517 ft 498 kts 75°
2026-05-05 06:16 51.94472 1.41581 34281 ft 492 kts 75°
2026-05-05 06:16 51.95414 1.46905 34821 ft 491 kts 75°
2026-05-05 06:17 51.96357 1.52254 35092 ft 496 kts 75°
2026-05-05 06:17 51.97304 1.57641 35384 ft 498 kts 75°
2026-05-05 06:17 51.98252 1.63047 35821 ft 498 kts 75°
2026-05-05 06:17 51.99198 1.68452 36250 ft 498 kts 75°
2026-05-05 06:18 52.00119 1.73876 36637 ft 498 kts 76°
2026-05-05 06:18 52.00977 1.79321 37014 ft 499 kts 77°
2026-05-05 06:18 52.01808 1.84796 37400 ft 499 kts 77°
2026-05-05 06:18 52.02630 1.90272 37780 ft 499 kts 77°
2026-05-05 06:19 52.03455 1.95753 38147 ft 500 kts 77°
2026-05-05 06:19 52.04285 2.01235 38492 ft 500 kts 77°
2026-05-05 06:19 52.05110 2.06664 38761 ft 502 kts 77°
2026-05-05 06:19 52.05949 2.12169 39023 ft 502 kts 77°
2026-05-05 06:20 52.06786 2.17668 39296 ft 502 kts 77°
2026-05-05 06:20 52.07623 2.23173 39558 ft 502 kts 77°
2026-05-05 06:20 52.08456 2.28675 39815 ft 502 kts 77°
2026-05-05 06:20 52.09288 2.34190 40068 ft 502 kts 77°
2026-05-05 06:21 52.10116 2.39697 40306 ft 502 kts 77°
2026-05-05 06:21 52.10945 2.45231 40545 ft 502 kts 77°
2026-05-05 06:21 52.11773 2.50754 40732 ft 504 kts 77°
2026-05-05 06:21 52.12714 2.56257 40899 ft 505 kts 73°
2026-05-05 06:22 52.14850 2.67166 40993 ft 505 kts 72°
2026-05-05 06:22 52.17009 2.78061 40994 ft 505 kts 73°
2026-05-05 06:23 52.19103 2.88996 40991 ft 505 kts 73°
2026-05-05 06:23 52.21156 2.99957 40979 ft 506 kts 73°
2026-05-05 06:24 52.23197 3.10959 40985 ft 507 kts 73°
2026-05-05 06:24 52.25199 3.21981 40988 ft 507 kts 77°
2026-05-05 06:25 52.26432 3.33295 40985 ft 506 kts 82°
2026-05-05 06:25 52.27422 3.44652 40982 ft 506 kts 83°
2026-05-05 06:26 52.28358 3.55969 40981 ft 507 kts 83°
2026-05-05 06:26 52.29299 3.67386 40984 ft 507 kts 83°
2026-05-05 06:27 52.30706 3.84517 40980 ft 507 kts 83°
2026-05-05 06:28 52.31632 3.95933 40979 ft 507 kts 83°
2026-05-05 06:28 52.32549 4.07381 40980 ft 508 kts 83°
2026-05-05 06:29 52.33455 4.18839 40974 ft 508 kts 83°
2026-05-05 06:29 52.34349 4.30295 40974 ft 508 kts 84°
2026-05-05 06:30 52.35234 4.41778 40971 ft 508 kts 84°
2026-05-05 06:30 52.36107 4.53248 40972 ft 508 kts 84°
2026-05-05 06:31 52.36969 4.64736 40963 ft 508 kts 84°
2026-05-05 06:31 52.37820 4.76220 40967 ft 508 kts 84°
2026-05-05 06:32 52.38660 4.87723 40966 ft 508 kts 84°
2026-05-05 06:32 52.39488 4.99216 40962 ft 508 kts 84°
2026-05-05 06:33 52.40306 5.10729 40966 ft 509 kts 84°
2026-05-05 06:33 52.41114 5.22258 40970 ft 509 kts 84°
2026-05-05 06:34 52.41910 5.33781 40967 ft 509 kts 84°
2026-05-05 06:34 52.42694 5.45299 40966 ft 509 kts 84°
2026-05-05 06:35 52.43469 5.56849 40966 ft 510 kts 84°
2026-05-05 06:35 52.44104 5.66442 40963 ft 510 kts 85°
2026-05-05 06:36 52.44980 5.79883 40955 ft 510 kts 85°
2026-05-05 06:36 52.45721 5.91447 40955 ft 510 kts 85°
2026-05-05 06:37 52.46333 6.01134 40942 ft 510 kts 85°
2026-05-05 06:37 52.47055 6.12722 40947 ft 511 kts 85°
2026-05-05 06:38 52.47765 6.24309 40944 ft 511 kts 85°
2026-05-05 06:38 52.48464 6.35908 40945 ft 511 kts 85°
2026-05-05 06:39 52.49147 6.47440 40945 ft 511 kts 85°
2026-05-05 06:39 52.49824 6.59056 40947 ft 511 kts 85°
2026-05-05 06:40 52.50490 6.70673 40951 ft 511 kts 85°
2026-05-05 06:40 52.51144 6.82295 40950 ft 511 kts 85°
2026-05-05 06:41 52.51787 6.93923 40952 ft 511 kts 86°
2026-05-05 06:41 52.52419 7.05564 40954 ft 512 kts 86°
2026-05-05 06:42 52.53039 7.17204 40961 ft 512 kts 86°
2026-05-05 06:42 52.53648 7.28844 40958 ft 512 kts 86°
2026-05-05 06:43 52.54247 7.40501 40958 ft 512 kts 86°
2026-05-05 06:43 52.54834 7.52172 40936 ft 512 kts 86°
2026-05-05 06:44 52.55408 7.63829 40938 ft 512 kts 86°
2026-05-05 06:44 52.55972 7.75490 40938 ft 512 kts 86°
2026-05-05 06:45 52.56521 7.87082 40936 ft 512 kts 86°
2026-05-05 06:45 52.57061 7.98756 40936 ft 512 kts 86°
2026-05-05 06:46 52.57590 8.10421 40937 ft 512 kts 87°
2026-05-05 06:46 52.58109 8.22108 40938 ft 512 kts 87°
2026-05-05 06:47 52.58615 8.33779 40940 ft 512 kts 87°
2026-05-05 06:47 52.59110 8.45466 40925 ft 512 kts 87°
2026-05-05 06:48 52.59594 8.57163 40924 ft 512 kts 87°
2026-05-05 06:48 52.60066 8.68860 40919 ft 513 kts 88°
2026-05-05 06:49 52.60528 8.80591 40928 ft 513 kts 88°
2026-05-05 06:49 52.60978 8.92316 40915 ft 513 kts 88°
2026-05-05 06:50 52.61416 9.04033 40899 ft 513 kts 88°
2026-05-05 06:50 52.61844 9.15773 40908 ft 514 kts 88°
2026-05-05 06:51 52.62207 9.27443 40842 ft 511 kts 91°
2026-05-05 06:51 52.61991 9.33238 40324 ft 505 kts 100°
2026-05-05 06:51 52.61429 9.38944 39629 ft 506 kts 103°
2026-05-05 06:51 52.60775 9.44641 38967 ft 507 kts 103°
2026-05-05 06:52 52.60102 9.50341 38274 ft 508 kts 103°
2026-05-05 06:52 52.59425 9.56044 37462 ft 509 kts 103°
2026-05-05 06:52 52.58742 9.61776 36624 ft 511 kts 104°
2026-05-05 06:52 52.58055 9.67516 35799 ft 512 kts 104°
2026-05-05 06:53 52.57364 9.73273 34981 ft 514 kts 104°
2026-05-05 06:53 52.56668 9.79035 34180 ft 516 kts 104°
2026-05-05 06:53 52.55967 9.84827 33279 ft 518 kts 104°
2026-05-05 06:53 52.55259 9.90637 32425 ft 518 kts 104°
2026-05-05 06:54 52.54552 9.96428 31591 ft 517 kts 104°
2026-05-05 06:54 52.53841 10.02221 30737 ft 517 kts 104°
2026-05-05 06:54 52.53126 10.08015 29665 ft 521 kts 105°
2026-05-05 06:54 52.52401 10.13864 28692 ft 522 kts 105°
2026-05-05 06:55 52.51681 10.19668 28027 ft 515 kts 105°
2026-05-05 06:55 52.50966 10.25402 27367 ft 509 kts 105°
2026-05-05 06:55 52.50258 10.31058 26743 ft 503 kts 105°
2026-05-05 06:55 52.49555 10.36647 26131 ft 497 kts 104°
2026-05-05 06:56 52.48857 10.42165 25521 ft 492 kts 104°
2026-05-05 06:56 52.48175 10.47541 24930 ft 486 kts 104°
2026-05-05 06:56 52.47637 10.51764 24440 ft 482 kts 105°
2026-05-05 06:56 52.46952 10.57125 23763 ft 479 kts 105°
2026-05-05 06:57 52.46270 10.62442 23102 ft 474 kts 105°
2026-05-05 06:57 52.45595 10.67690 22422 ft 468 kts 105°
2026-05-05 06:57 52.44923 10.72886 21724 ft 463 kts 105°
2026-05-05 06:57 52.44258 10.78016 21043 ft 458 kts 105°
2026-05-05 06:58 52.43598 10.83085 20377 ft 453 kts 105°
2026-05-05 06:58 52.42942 10.88104 19726 ft 448 kts 105°
2026-05-05 06:58 52.42290 10.93071 19079 ft 443 kts 105°
2026-05-05 06:58 52.41654 10.97911 18456 ft 438 kts 105°
2026-05-05 06:59 52.41012 11.02768 17721 ft 434 kts 105°
2026-05-05 06:59 52.40374 11.07583 16968 ft 431 kts 105°
2026-05-05 06:59 52.39738 11.12362 16254 ft 427 kts 105°
2026-05-05 06:59 52.39108 11.17089 15558 ft 423 kts 105°
2026-05-05 07:00 52.38482 11.21765 14871 ft 419 kts 105°
2026-05-05 07:00 52.37860 11.26400 14193 ft 415 kts 104°
2026-05-05 07:00 52.37242 11.30986 13513 ft 411 kts 104°
2026-05-05 07:00 52.36629 11.35528 12768 ft 407 kts 104°
2026-05-05 07:01 52.36021 11.40016 12059 ft 402 kts 104°
2026-05-05 07:01 52.35419 11.44449 11395 ft 397 kts 104°
2026-05-05 07:01 52.34825 11.48809 11053 ft 385 kts 104°
2026-05-05 07:01 52.34255 11.52988 10832 ft 369 kts 104°
2026-05-05 07:02 52.33705 11.57000 10625 ft 354 kts 104°
2026-05-05 07:02 52.33176 11.60851 10412 ft 340 kts 104°
2026-05-05 07:02 52.32667 11.64543 10210 ft 324 kts 104°
2026-05-05 07:02 52.32188 11.68020 9788 ft 305 kts 104°
2026-05-05 07:03 52.31727 11.71349 9065 ft 297 kts 104°
2026-05-05 07:03 52.31273 11.74618 8415 ft 293 kts 104°
2026-05-05 07:03 52.30826 11.77825 8156 ft 294 kts 104°
2026-05-05 07:03 52.30363 11.81133 8083 ft 295 kts 104°
2026-05-05 07:04 52.29916 11.84338 7972 ft 292 kts 104°
2026-05-05 07:04 52.29463 11.87571 7823 ft 291 kts 104°
2026-05-05 07:04 52.29012 11.90790 7718 ft 290 kts 104°
2026-05-05 07:04 52.28559 11.94006 7552 ft 290 kts 104°
2026-05-05 07:05 52.28109 11.97204 7303 ft 288 kts 105°
2026-05-05 07:05 52.27660 12.00385 7066 ft 286 kts 105°
2026-05-05 07:05 52.27213 12.03542 6815 ft 285 kts 105°
2026-05-05 07:05 52.26766 12.06691 6574 ft 284 kts 105°
2026-05-05 07:06 52.26322 12.09821 6337 ft 282 kts 105°
2026-05-05 07:06 52.25878 12.12943 6081 ft 282 kts 105°
2026-05-05 07:06 52.25436 12.16040 5914 ft 281 kts 105°
2026-05-05 07:06 52.24993 12.19135 5781 ft 280 kts 105°
2026-05-05 07:07 52.24551 12.22222 5658 ft 279 kts 105°
2026-05-05 07:07 52.24109 12.25299 5530 ft 278 kts 105°
2026-05-05 07:07 52.23668 12.28366 5494 ft 278 kts 105°
2026-05-05 07:07 52.23224 12.31444 5492 ft 278 kts 105°
2026-05-05 07:08 52.22782 12.34504 5481 ft 278 kts 105°
2026-05-05 07:08 52.22339 12.37568 5485 ft 277 kts 105°
2026-05-05 07:08 52.21902 12.40592 5482 ft 277 kts 105°
2026-05-05 07:08 52.21451 12.43692 5458 ft 277 kts 105°
2026-05-05 07:09 52.21013 12.46703 5424 ft 277 kts 105°
2026-05-05 07:09 52.20574 12.49716 5386 ft 266 kts 105°
2026-05-05 07:09 52.20158 12.52576 5247 ft 257 kts 105°
2026-05-05 07:09 52.19727 12.55507 5132 ft 273 kts 105°
2026-05-05 07:10 52.19281 12.58538 5044 ft 275 kts 105°
2026-05-05 07:10 52.18836 12.61572 4916 ft 275 kts 105°
2026-05-05 07:10 52.18392 12.64593 4801 ft 274 kts 105°
2026-05-05 07:10 52.17947 12.67610 4657 ft 274 kts 105°
2026-05-05 07:11 52.17503 12.70618 4536 ft 273 kts 105°
2026-05-05 07:11 52.17213 12.73671 4399 ft 274 kts 91°
2026-05-05 07:11 52.17568 12.76706 4273 ft 274 kts 71°
2026-05-05 07:11 52.18257 12.79597 4158 ft 274 kts 68°
2026-05-05 07:12 52.18982 12.82466 4014 ft 274 kts 68°
2026-05-05 07:12 52.19703 12.85334 3905 ft 273 kts 68°
2026-05-05 07:12 52.20423 12.88196 3792 ft 273 kts 67°
2026-05-05 07:12 52.21165 12.90998 3656 ft 272 kts 67°
2026-05-05 07:13 52.21902 12.93832 3640 ft 270 kts 68°
2026-05-05 07:13 52.22585 12.96585 3647 ft 254 kts 69°
2026-05-05 07:13 52.23203 12.99188 3669 ft 239 kts 70°
2026-05-05 07:13 52.23780 13.01646 3673 ft 225 kts 70°
2026-05-05 07:14 52.24325 13.03953 3679 ft 211 kts 69°
2026-05-05 07:14 52.24851 13.06155 3679 ft 207 kts 69°
2026-05-05 07:14 52.25374 13.08342 3689 ft 207 kts 69°
2026-05-05 07:14 52.25895 13.10526 3689 ft 207 kts 69°
2026-05-05 07:15 52.26417 13.12715 3682 ft 207 kts 69°
2026-05-05 07:15 52.26937 13.14900 3686 ft 207 kts 69°
2026-05-05 07:15 52.27442 13.17015 3688 ft 191 kts 70°
2026-05-05 07:15 52.27915 13.18999 3722 ft 186 kts 70°
2026-05-05 07:16 52.28384 13.20972 3548 ft 186 kts 70°
2026-05-05 07:16 52.28852 13.22934 3277 ft 185 kts 70°
2026-05-05 07:16 52.29318 13.24893 3006 ft 185 kts 70°
2026-05-05 07:16 52.29782 13.26841 2758 ft 184 kts 70°
2026-05-05 07:17 52.30244 13.28782 2500 ft 183 kts 70°
2026-05-05 07:17 52.30694 13.30673 2262 ft 174 kts 70°
2026-05-05 07:17 52.31123 13.32470 2023 ft 165 kts 71°
2026-05-05 07:17 52.31526 13.34165 1804 ft 155 kts 71°
2026-05-05 07:18 52.31903 13.35751 1605 ft 144 kts 71°
2026-05-05 07:18 52.32260 13.37254 1416 ft 140 kts 71°
2026-05-05 07:18 52.32610 13.38728 1221 ft 139 kts 71°
2026-05-05 07:18 52.32959 13.40194 1033 ft 138 kts 71°
2026-05-05 07:19 52.33302 13.41641 843 ft 135 kts 69°
2026-05-05 07:19 52.33634 13.43038 677 ft 132 kts 68°
2026-05-05 07:19 52.33965 13.44430 509 ft 131 kts 68°
2026-05-05 07:19 52.34294 13.45812 333 ft 130 kts 68°
2026-05-05 07:20 52.34624 13.47201 179 ft 129 kts 68°
2026-05-05 07:20 52.34917 13.48418 160 ft 96 kts 69°
2026-05-05 07:20 52.35102 13.49197 160 ft 51 kts 69°
2026-05-05 07:20 52.35207 13.49640 160 ft 34 kts 68°
2026-05-05 07:21 52.35339 13.49945 160 ft 33 kts 42°
2026-05-05 07:21 52.35486 13.50137 160 ft 20 kts 39°
2026-05-05 07:21 52.35571 13.50201 160 ft 14 kts 356°
2026-05-05 07:21 52.35664 13.50210 160 ft 14 kts 41°
2026-05-05 07:22 52.35712 13.50368 160 ft 17 kts 68°
2026-05-05 07:22 52.35760 13.50569 160 ft 21 kts 69°
2026-05-05 07:22 52.35807 13.50741 160 ft 12 kts 46°
2026-05-05 07:22 52.35877 13.50772 160 ft 12 kts 20°
2026-05-05 07:23 52.35928 13.50880 160 ft 10 kts 65°
2026-05-05 07:23 52.35936 13.50911 160 ft 2 kts 66°
2026-05-05 07:23 52.35951 13.50943 160 ft 5 kts 42°
2026-05-05 07:23 52.35985 13.50963 160 ft 3 kts 10°
2026-05-05 07:24 52.35995 13.50965 160 ft 3 kts
2026-05-05 07:24 52.36030 13.50971 160 ft 3 kts
2026-05-05 07:24 52.36043 13.50972 161 ft 0 kts